Volver al catálogo

COSMOS 249 DEB

ActivoUNKNOWN
NORAD 6764·DEBRIS·🇷🇺 Russia

Lanzado Oct 20, 1968 desde Baikonur Cosmodrome

Loading…

Próximos Pases (próximas 24 horas)

TLE

ActualizadoSource: Space-Track

Época: Sep 13, 2026, 07:52 UTC

1 06764U 68091CK  26256.32805704  .00000020  00000-0  25711-3 0  9998
2 06764  62.3405 223.6508 0767509  12.4646 130.8144 12.38197161736082

Sigue COSMOS 249 DEB en tiempo real con AllMySat

Download on the App Store